Location: *
(51.5000°N, 0.1100°W)
Time: 16:21:16
(UTC+00:00)

CZ-2D R/B - Pass Details

Date: 25 May 2024
Orbit: 790 x 843 km, 98.8° (Epoch: 16 June)

Event Time Altitude Azimuth Distance (km) Brightness Sun altitude
Rises 02:46:46 0° 12° (NNE) 3,415 6.6 -8.6°
Reaches altitude 10° 02:49:11 10° 9° (N) 2,473 5.7 -8.3°
Maximum altitude 02:54:32 55° 293° (WNW) 1,002 2.5 -7.8°
Drops below altitude 10° 02:59:48 10° 216° (SW) 2,436 3.9 -7.2°
Enters shadow 03:00:07 - 216° (SW) 2,560 4.0 -7.2°
